TAM9560 SAEZ-SAZS

Flight info

Callsign TAM9560
Flight time 1h 58m
Altitude 34000
Route TORUL1A TORUL UT654 ORERA ORERA2Q
Aircraft A321/M-SDE3FGHIRWY/LB1

Departure

Time 2026-04-25 15:30
Airport Ezeiza International Airport - Ministro Pistarini (SAEZ)

Arrival

Time 2026-04-25 17:28
Airport Teniente Luis Candelaria International Airport (SAZS)
Time Latitude Longitude Altitude Speed Heading
2026-04-25 14:55 -34.81302 -58.53702 73 ft 0 kts 246°
2026-04-25 15:13 -34.81301 -58.53699 73 ft 3 kts 246°
2026-04-25 15:13 -34.81290 -58.53669 65 ft 4 kts 243°
2026-04-25 15:14 -34.81277 -58.53641 63 ft 4 kts 238°
2026-04-25 15:14 -34.81261 -58.53613 63 ft 4 kts 230°
2026-04-25 15:14 -34.81243 -58.53592 65 ft 4 kts 206°
2026-04-25 15:14 -34.81227 -58.53586 70 ft 1 kts 182°
2026-04-25 15:15 -34.81225 -58.53586 65 ft 0 kts 182°
2026-04-25 15:19 -34.81228 -58.53586 70 ft 2 kts 182°
2026-04-25 15:19 -34.81261 -58.53589 64 ft 6 kts 184°
2026-04-25 15:20 -34.81305 -58.53592 66 ft 7 kts 180°
2026-04-25 15:20 -34.81354 -58.53579 70 ft 8 kts 150°
2026-04-25 15:20 -34.81387 -58.53524 67 ft 9 kts 118°
2026-04-25 15:20 -34.81416 -58.53458 71 ft 10 kts 119°
2026-04-25 15:21 -34.81450 -58.53384 66 ft 10 kts 119°
2026-04-25 15:21 -34.81487 -58.53303 69 ft 11 kts 118°
2026-04-25 15:21 -34.81526 -58.53214 67 ft 12 kts 118°
2026-04-25 15:21 -34.81585 -58.53136 65 ft 13 kts 150°
2026-04-25 15:22 -34.81674 -58.53101 70 ft 14 kts 164°
2026-04-25 15:22 -34.81769 -58.53067 69 ft 15 kts 165°
2026-04-25 15:22 -34.81870 -58.53033 69 ft 16 kts 162°
2026-04-25 15:22 -34.81976 -58.52994 69 ft 16 kts 162°
2026-04-25 15:23 -34.82048 -58.52893 70 ft 17 kts 108°
2026-04-25 15:23 -34.82076 -58.52755 73 ft 17 kts 102°
2026-04-25 15:23 -34.82099 -58.52642 67 ft 12 kts 102°
2026-04-25 15:23 -34.82119 -58.52540 73 ft 13 kts 105°
2026-04-25 15:24 -34.82142 -58.52431 66 ft 14 kts 105°
2026-04-25 15:24 -34.82165 -58.52316 67 ft 14 kts 104°
2026-04-25 15:24 -34.82192 -58.52194 69 ft 15 kts 102°
2026-04-25 15:24 -34.82208 -58.52109 73 ft 16 kts 104°
2026-04-25 15:25 -34.82232 -58.51980 71 ft 12 kts 103°
2026-04-25 15:25 -34.82252 -58.51878 73 ft 11 kts 103°
2026-04-25 15:25 -34.82261 -58.51837 72 ft 3 kts 105°
2026-04-25 15:25 -34.82268 -58.51811 69 ft 4 kts 109°
2026-04-25 15:26 -34.82287 -58.51788 63 ft 4 kts 152°
2026-04-25 15:26 -34.82320 -58.51784 70 ft 5 kts 184°
2026-04-25 15:26 -34.82343 -58.51789 64 ft 0 kts 190°
2026-04-25 15:28 -34.82349 -58.51790 65 ft 4 kts 191°
2026-04-25 15:28 -34.82382 -58.51799 66 ft 5 kts 192°
2026-04-25 15:28 -34.82422 -58.51810 64 ft 7 kts 192°
2026-04-25 15:28 -34.82470 -58.51825 63 ft 8 kts 198°
2026-04-25 15:29 -34.82524 -58.51870 67 ft 11 kts 244°
2026-04-25 15:29 -34.82525 -58.51912 73 ft 0 kts 278°
2026-04-25 15:29 -34.82470 -58.52243 67 ft 84 kts 282°
2026-04-25 15:29 -34.82287 -58.53234 76 ft 153 kts 282°
2026-04-25 15:30 -34.82027 -58.54641 572 ft 178 kts 282°
2026-04-25 15:30 -34.81772 -58.56083 1524 ft 171 kts 280°
2026-04-25 15:30 -34.81527 -58.57517 1988 ft 181 kts 280°
2026-04-25 15:30 -34.81260 -58.59108 2247 ft 203 kts 279°
2026-04-25 15:31 -34.81151 -58.60897 2405 ft 224 kts 255°
2026-04-25 15:31 -34.81897 -58.62656 2653 ft 247 kts 232°
2026-04-25 15:31 -34.83050 -58.64253 3328 ft 255 kts 226°
2026-04-25 15:31 -34.84303 -58.65796 4116 ft 257 kts 225°
2026-04-25 15:32 -34.85563 -58.67343 4936 ft 257 kts 226°
2026-04-25 15:32 -34.86800 -58.68915 5746 ft 258 kts 227°
2026-04-25 15:32 -34.88114 -58.70405 6529 ft 260 kts 212°
2026-04-25 15:33 -34.91736 -58.70868 7909 ft 273 kts 182°
2026-04-25 15:33 -34.93545 -58.71416 8544 ft 269 kts 216°
2026-04-25 15:33 -34.94794 -58.73067 9202 ft 269 kts 241°
2026-04-25 15:33 -34.95711 -58.75064 9944 ft 271 kts 243°
2026-04-25 15:34 -34.96663 -58.77113 10341 ft 287 kts 241°
2026-04-25 15:34 -34.97740 -58.79277 10491 ft 310 kts 239°
2026-04-25 15:34 -34.98962 -58.81557 10607 ft 332 kts 238°
2026-04-25 15:34 -34.99386 -58.82317 10690 ft 337 kts 237°
2026-04-25 15:35 -35.03132 -58.88651 12184 ft 351 kts 236°
2026-04-25 15:35 -35.04593 -58.91069 12824 ft 354 kts 237°
2026-04-25 15:35 -35.06059 -58.93497 13445 ft 357 kts 237°
2026-04-25 15:36 -35.09015 -58.98433 14631 ft 362 kts 238°
2026-04-25 15:36 -35.10497 -59.00921 15242 ft 363 kts 238°
2026-04-25 15:36 -35.11986 -59.03427 15920 ft 364 kts 238°
2026-04-25 15:37 -35.13469 -59.05924 16591 ft 364 kts 238°
2026-04-25 15:37 -35.14940 -59.08397 17220 ft 365 kts 238°
2026-04-25 15:37 -35.16436 -59.10917 17850 ft 367 kts 238°
2026-04-25 15:37 -35.17933 -59.13449 18444 ft 368 kts 239°
2026-04-25 15:38 -35.19435 -59.15992 18961 ft 370 kts 239°
2026-04-25 15:38 -35.20946 -59.18549 19472 ft 372 kts 239°
2026-04-25 15:38 -35.22472 -59.21124 19976 ft 374 kts 239°
2026-04-25 15:38 -35.24005 -59.23712 20473 ft 375 kts 239°
2026-04-25 15:39 -35.25533 -59.26303 20959 ft 377 kts 239°
2026-04-25 15:39 -35.27073 -59.28918 21424 ft 379 kts 239°
2026-04-25 15:39 -35.28615 -59.31536 21883 ft 381 kts 239°
2026-04-25 15:39 -35.30168 -59.34171 22357 ft 382 kts 239°
2026-04-25 15:40 -35.31727 -59.36818 22807 ft 384 kts 240°
2026-04-25 15:40 -35.32255 -59.37715 22956 ft 385 kts 240°
2026-04-25 15:40 -35.34864 -59.42151 23668 ft 388 kts 240°
2026-04-25 15:40 -35.36441 -59.44839 24028 ft 389 kts 240°
2026-04-25 15:41 -35.38028 -59.47545 24404 ft 390 kts 240°
2026-04-25 15:41 -35.39617 -59.50246 24789 ft 392 kts 240°
2026-04-25 15:41 -35.41213 -59.52958 25164 ft 392 kts 240°
2026-04-25 15:41 -35.42810 -59.55675 25534 ft 393 kts 240°
2026-04-25 15:42 -35.43868 -59.57479 25777 ft 394 kts 241°
2026-04-25 15:42 -35.45468 -59.60218 26161 ft 395 kts 241°
2026-04-25 15:42 -35.47605 -59.63890 26647 ft 396 kts 241°
2026-04-25 15:42 -35.48666 -59.65713 26872 ft 396 kts 241°
2026-04-25 15:43 -35.50271 -59.68469 27220 ft 397 kts 241°
2026-04-25 15:43 -35.51884 -59.71234 27561 ft 398 kts 242°
2026-04-25 15:43 -35.53497 -59.73998 27944 ft 399 kts 242°
2026-04-25 15:43 -35.55118 -59.76778 28294 ft 401 kts 242°
2026-04-25 15:44 -35.56724 -59.79539 28623 ft 401 kts 242°
2026-04-25 15:44 -35.58342 -59.82322 29088 ft 399 kts 242°
2026-04-25 15:44 -35.59952 -59.85089 29579 ft 396 kts 242°
2026-04-25 15:44 -35.61547 -59.87832 30072 ft 393 kts 243°
2026-04-25 15:45 -35.63132 -59.90556 30499 ft 391 kts 243°
2026-04-25 15:45 -35.64713 -59.93275 30870 ft 389 kts 243°
2026-04-25 15:45 -35.66278 -59.95970 31230 ft 387 kts 243°
2026-04-25 15:45 -35.67336 -59.97800 31485 ft 386 kts 243°
2026-04-25 15:46 -35.69388 -60.01358 31970 ft 384 kts 243°
2026-04-25 15:46 -35.70927 -60.04028 32309 ft 382 kts 243°
2026-04-25 15:46 -35.72460 -60.06691 32681 ft 381 kts 243°
2026-04-25 15:46 -35.73990 -60.09347 33026 ft 379 kts 243°
2026-04-25 15:47 -35.75514 -60.11990 33377 ft 378 kts 244°
2026-04-25 15:47 -35.77033 -60.14628 33710 ft 376 kts 244°
2026-04-25 15:47 -35.78546 -60.17259 34011 ft 376 kts 244°
2026-04-25 15:47 -35.80055 -60.19883 34075 ft 375 kts 244°
2026-04-25 15:48 -35.83069 -60.25122 34073 ft 374 kts 244°
2026-04-25 15:48 -35.86058 -60.30335 34076 ft 373 kts 244°
2026-04-25 15:49 -35.89049 -60.35570 34076 ft 373 kts 244°
2026-04-25 15:49 -35.92042 -60.40811 34079 ft 373 kts 244°
2026-04-25 15:50 -35.95040 -60.46062 34115 ft 374 kts 244°
2026-04-25 15:50 -35.98027 -60.51300 34084 ft 375 kts 244°
2026-04-25 15:51 -36.00526 -60.55683 34083 ft 375 kts 244°
2026-04-25 15:51 -36.04049 -60.61867 34080 ft 376 kts 244°
2026-04-25 15:52 -36.07035 -60.67138 34086 ft 376 kts 244°
2026-04-25 15:52 -36.10045 -60.72457 34089 ft 377 kts 244°
2026-04-25 15:53 -36.13055 -60.77779 34107 ft 377 kts 244°
2026-04-25 15:53 -36.16064 -60.83103 34103 ft 378 kts 244°
2026-04-25 15:54 -36.19055 -60.88415 34095 ft 378 kts 244°
2026-04-25 15:54 -36.22073 -60.93776 34092 ft 378 kts 244°
2026-04-25 15:55 -36.25079 -60.99128 34100 ft 378 kts 244°
2026-04-25 15:55 -36.28087 -61.04481 34109 ft 378 kts 244°
2026-04-25 15:56 -36.31079 -61.09817 34093 ft 379 kts 244°
2026-04-25 15:56 -36.34091 -61.15212 34094 ft 380 kts 244°
2026-04-25 15:57 -36.37111 -61.20622 34110 ft 382 kts 244°
2026-04-25 15:57 -36.40139 -61.26061 34099 ft 383 kts 244°
2026-04-25 15:58 -36.43129 -61.31478 34095 ft 383 kts 244°
2026-04-25 15:58 -36.46153 -61.36975 34108 ft 384 kts 244°
2026-04-25 15:59 -36.49180 -61.42462 34104 ft 386 kts 244°
2026-04-25 15:59 -36.52223 -61.47989 34099 ft 386 kts 244°
2026-04-25 16:00 -36.54231 -61.51641 34102 ft 387 kts 244°
2026-04-25 16:00 -36.58267 -61.59009 34106 ft 387 kts 244°
2026-04-25 16:01 -36.61302 -61.64551 34110 ft 387 kts 244°
2026-04-25 16:01 -36.64329 -61.70102 34108 ft 388 kts 244°
2026-04-25 16:02 -36.67358 -61.75661 34110 ft 388 kts 244°
2026-04-25 16:02 -36.70388 -61.81227 34112 ft 388 kts 244°
2026-04-25 16:03 -36.73418 -61.86802 34110 ft 388 kts 244°
2026-04-25 16:03 -36.76445 -61.92370 34144 ft 389 kts 243°
2026-04-25 16:04 -36.79485 -61.97973 34098 ft 391 kts 243°
2026-04-25 16:04 -36.82513 -62.03577 34094 ft 392 kts 243°
2026-04-25 16:05 -36.85574 -62.09243 34094 ft 393 kts 243°
2026-04-25 16:06 -36.90158 -62.17759 34101 ft 394 kts 243°
2026-04-25 16:06 -36.93226 -62.23455 34104 ft 394 kts 242°
2026-04-25 16:07 -36.96290 -62.29160 34106 ft 395 kts 242°
2026-04-25 16:07 -36.99355 -62.34885 34108 ft 396 kts 242°
2026-04-25 16:08 -37.02406 -62.40583 34110 ft 396 kts 242°
2026-04-25 16:08 -37.05480 -62.46331 34113 ft 397 kts 242°
2026-04-25 16:09 -37.08545 -62.52080 34114 ft 397 kts 242°
2026-04-25 16:09 -37.11590 -62.57801 34121 ft 398 kts 242°
2026-04-25 16:10 -37.14656 -62.63587 34113 ft 398 kts 242°
2026-04-25 16:10 -37.17727 -62.69378 34110 ft 400 kts 241°
2026-04-25 16:11 -37.20817 -62.75203 34098 ft 401 kts 241°
2026-04-25 16:11 -37.23896 -62.81026 34094 ft 402 kts 241°
2026-04-25 16:12 -37.26995 -62.86903 34091 ft 403 kts 240°
2026-04-25 16:12 -37.30091 -62.92788 34089 ft 404 kts 240°
2026-04-25 16:13 -37.33189 -62.98688 34093 ft 405 kts 240°
2026-04-25 16:13 -37.36294 -63.04592 34097 ft 405 kts 240°
2026-04-25 16:14 -37.39392 -63.10475 34100 ft 405 kts 240°
2026-04-25 16:14 -37.42498 -63.16398 34113 ft 406 kts 239°
2026-04-25 16:15 -37.45608 -63.22333 34100 ft 406 kts 239°
2026-04-25 16:15 -37.48721 -63.28276 34104 ft 406 kts 239°
2026-04-25 16:16 -37.51830 -63.34223 34098 ft 407 kts 239°
2026-04-25 16:16 -37.54932 -63.40184 34101 ft 407 kts 240°
2026-04-25 16:17 -37.58039 -63.46160 34117 ft 407 kts 239°
2026-04-25 16:17 -37.61133 -63.52127 34111 ft 406 kts 239°
2026-04-25 16:18 -37.64208 -63.58053 34093 ft 406 kts 239°
2026-04-25 16:18 -37.67317 -63.64049 34101 ft 406 kts 239°
2026-04-25 16:19 -37.70396 -63.70017 34104 ft 406 kts 239°
2026-04-25 16:19 -37.73462 -63.75963 34109 ft 405 kts 239°
2026-04-25 16:20 -37.78069 -63.84918 34104 ft 404 kts 239°
2026-04-25 16:21 -37.82662 -63.93857 34099 ft 403 kts 239°
2026-04-25 16:21 -37.85709 -63.99818 34101 ft 403 kts 239°
2026-04-25 16:22 -37.88754 -64.05775 34098 ft 403 kts 239°
2026-04-25 16:22 -37.91772 -64.11692 34104 ft 402 kts 239°
2026-04-25 16:23 -37.94807 -64.17647 34107 ft 401 kts 238°
2026-04-25 16:23 -37.97837 -64.23589 34127 ft 400 kts 239°
2026-04-25 16:24 -38.00833 -64.29485 34114 ft 399 kts 239°
2026-04-25 16:24 -38.03828 -64.35405 34108 ft 399 kts 239°
2026-04-25 16:25 -38.06811 -64.41335 34099 ft 398 kts 239°
2026-04-25 16:25 -38.09289 -64.46246 34097 ft 397 kts 239°
2026-04-25 16:26 -38.12258 -64.52154 34095 ft 396 kts 239°
2026-04-25 16:26 -38.15219 -64.58062 34091 ft 396 kts 239°
2026-04-25 16:27 -38.18187 -64.63968 34092 ft 396 kts 239°
2026-04-25 16:27 -38.21622 -64.70830 34091 ft 396 kts 239°
2026-04-25 16:28 -38.24093 -64.75800 34093 ft 396 kts 239°
2026-04-25 16:28 -38.27018 -64.81684 34091 ft 396 kts 239°
2026-04-25 16:29 -38.29964 -64.87613 34087 ft 396 kts 239°
2026-04-25 16:29 -38.32910 -64.93540 34087 ft 396 kts 239°
2026-04-25 16:30 -38.35860 -64.99486 34101 ft 396 kts 239°
2026-04-25 16:30 -38.38799 -65.05430 34102 ft 396 kts 239°
2026-04-25 16:31 -38.41727 -65.11382 34098 ft 395 kts 239°
2026-04-25 16:31 -38.44655 -65.17331 34097 ft 395 kts 239°
2026-04-25 16:32 -38.47582 -65.23274 34096 ft 395 kts 239°
2026-04-25 16:32 -38.50505 -65.29220 34094 ft 395 kts 239°
2026-04-25 16:33 -38.53402 -65.35136 34092 ft 395 kts 239°
2026-04-25 16:33 -38.56332 -65.41135 34097 ft 395 kts 239°
2026-04-25 16:34 -38.59223 -65.47064 34098 ft 395 kts 240°
2026-04-25 16:34 -38.62125 -65.53027 34095 ft 395 kts 240°
2026-04-25 16:35 -38.65040 -65.59008 34091 ft 395 kts 239°
2026-04-25 16:35 -38.67954 -65.64993 34088 ft 396 kts 240°
2026-04-25 16:36 -38.70841 -65.70950 34092 ft 396 kts 240°
2026-04-25 16:36 -38.73732 -65.76939 34097 ft 395 kts 240°
2026-04-25 16:37 -38.76633 -65.82950 34118 ft 396 kts 240°
2026-04-25 16:37 -38.79528 -65.88962 34108 ft 396 kts 240°
2026-04-25 16:38 -38.82418 -65.94970 34099 ft 396 kts 240°
2026-04-25 16:38 -38.85284 -66.00947 34099 ft 396 kts 240°
2026-04-25 16:39 -38.88171 -66.06971 34099 ft 396 kts 240°
2026-04-25 16:39 -38.91054 -66.12996 34100 ft 396 kts 240°
2026-04-25 16:40 -38.93926 -66.19019 34100 ft 395 kts 240°
2026-04-25 16:40 -38.96789 -66.25051 34099 ft 395 kts 240°
2026-04-25 16:41 -38.99633 -66.31059 34098 ft 395 kts 240°
2026-04-25 16:41 -39.03918 -66.40131 34097 ft 395 kts 240°
2026-04-25 16:42 -39.06767 -66.46179 34097 ft 395 kts 240°
2026-04-25 16:42 -39.09617 -66.52229 34100 ft 395 kts 240°
2026-04-25 16:43 -39.12449 -66.58247 34089 ft 394 kts 240°
2026-04-25 16:43 -39.15290 -66.64302 34103 ft 395 kts 240°
2026-04-25 16:44 -39.18125 -66.70366 34105 ft 395 kts 240°
2026-04-25 16:44 -39.20960 -66.76430 34094 ft 395 kts 240°
2026-04-25 16:45 -39.23769 -66.82458 34098 ft 395 kts 240°
2026-04-25 16:45 -39.26603 -66.88541 34092 ft 395 kts 240°
2026-04-25 16:46 -39.29428 -66.94613 34092 ft 395 kts 240°
2026-04-25 16:46 -39.31321 -66.98690 34089 ft 395 kts 240°
2026-04-25 16:47 -39.35069 -67.06800 34092 ft 395 kts 240°
2026-04-25 16:47 -39.37881 -67.12897 34090 ft 395 kts 240°
2026-04-25 16:48 -39.40696 -67.18994 34089 ft 395 kts 240°
2026-04-25 16:48 -39.43512 -67.25110 34086 ft 398 kts 240°
2026-04-25 16:49 -39.46364 -67.31324 34077 ft 409 kts 240°
2026-04-25 16:49 -39.49276 -67.37673 34073 ft 411 kts 240°
2026-04-25 16:50 -39.52196 -67.44049 34089 ft 411 kts 240°
2026-04-25 16:50 -39.55105 -67.50429 34066 ft 410 kts 240°
2026-04-25 16:51 -39.57985 -67.56760 34059 ft 410 kts 240°
2026-04-25 16:51 -39.59927 -67.61032 34080 ft 410 kts 240°
2026-04-25 16:52 -39.63782 -67.69529 34072 ft 410 kts 240°
2026-04-25 16:52 -39.66673 -67.75918 34071 ft 410 kts 240°
2026-04-25 16:53 -39.71016 -67.85503 34070 ft 410 kts 240°
2026-04-25 16:54 -39.73878 -67.91867 34068 ft 410 kts 240°
2026-04-25 16:54 -39.76753 -67.98290 34069 ft 411 kts 240°
2026-04-25 16:55 -39.79628 -68.04713 34067 ft 411 kts 240°
2026-04-25 16:55 -39.82570 -68.11090 34066 ft 411 kts 238°
2026-04-25 16:56 -39.85744 -68.17280 34064 ft 411 kts 237°
2026-04-25 16:56 -39.88968 -68.23432 34067 ft 410 kts 237°
2026-04-25 16:57 -39.92111 -68.29561 34047 ft 405 kts 238°
2026-04-25 16:57 -39.95187 -68.35664 34047 ft 405 kts 238°
2026-04-25 16:58 -39.98277 -68.41820 34046 ft 405 kts 238°
2026-04-25 16:58 -40.01373 -68.47956 34051 ft 405 kts 238°
2026-04-25 16:59 -40.04450 -68.54072 34051 ft 405 kts 238°
2026-04-25 16:59 -40.07535 -68.60211 34055 ft 404 kts 238°
2026-04-25 17:00 -40.10612 -68.66353 34048 ft 404 kts 238°
2026-04-25 17:00 -40.13667 -68.72481 33333 ft 400 kts 238°
2026-04-25 17:00 -40.15188 -68.75534 32757 ft 396 kts 238°
2026-04-25 17:01 -40.16668 -68.78496 32303 ft 391 kts 238°
2026-04-25 17:01 -40.18155 -68.81474 31653 ft 390 kts 238°
2026-04-25 17:01 -40.19641 -68.84457 30925 ft 392 kts 238°
2026-04-25 17:01 -40.21135 -68.87461 30175 ft 394 kts 237°
2026-04-25 17:02 -40.22633 -68.90475 29343 ft 395 kts 238°
2026-04-25 17:02 -40.24139 -68.93509 28503 ft 397 kts 238°
2026-04-25 17:02 -40.25637 -68.96527 27865 ft 393 kts 238°
2026-04-25 17:02 -40.26120 -68.97499 27666 ft 391 kts 238°
2026-04-25 17:03 -40.28572 -69.02449 26611 ft 386 kts 238°
2026-04-25 17:03 -40.30021 -69.05387 25988 ft 383 kts 238°
2026-04-25 17:03 -40.31461 -69.08304 25605 ft 380 kts 238°
2026-04-25 17:03 -40.32904 -69.11230 25357 ft 382 kts 238°
2026-04-25 17:04 -40.34349 -69.14163 25115 ft 382 kts 238°
2026-04-25 17:04 -40.35776 -69.17059 24874 ft 381 kts 238°
2026-04-25 17:04 -40.37212 -69.19971 24629 ft 379 kts 238°
2026-04-25 17:04 -40.38642 -69.22875 24384 ft 376 kts 238°
2026-04-25 17:05 -40.40046 -69.25731 24149 ft 375 kts 238°
2026-04-25 17:05 -40.42863 -69.31473 23690 ft 375 kts 238°
2026-04-25 17:05 -40.44302 -69.34413 23424 ft 389 kts 238°
2026-04-25 17:06 -40.45773 -69.37416 23148 ft 391 kts 238°
2026-04-25 17:06 -40.47245 -69.40425 22874 ft 391 kts 238°
2026-04-25 17:06 -40.48714 -69.43429 22597 ft 390 kts 238°
2026-04-25 17:06 -40.50179 -69.46425 22237 ft 386 kts 238°
2026-04-25 17:07 -40.51617 -69.49375 21857 ft 382 kts 238°
2026-04-25 17:07 -40.53052 -69.52327 21602 ft 384 kts 238°
2026-04-25 17:07 -40.54493 -69.55293 21335 ft 383 kts 238°
2026-04-25 17:07 -40.55908 -69.58208 21078 ft 382 kts 238°
2026-04-25 17:08 -40.57340 -69.61155 20841 ft 382 kts 238°
2026-04-25 17:08 -40.58770 -69.64098 20584 ft 382 kts 238°
2026-04-25 17:08 -40.60197 -69.67040 20337 ft 381 kts 238°
2026-04-25 17:08 -40.61619 -69.69979 20017 ft 377 kts 238°
2026-04-25 17:09 -40.63021 -69.72885 19381 ft 374 kts 238°
2026-04-25 17:09 -40.63941 -69.74787 19213 ft 372 kts 238°
2026-04-25 17:09 -40.65334 -69.77672 18971 ft 374 kts 238°
2026-04-25 17:09 -40.66733 -69.80563 18735 ft 374 kts 238°
2026-04-25 17:10 -40.68130 -69.83452 18496 ft 374 kts 238°
2026-04-25 17:10 -40.69975 -69.87283 18153 ft 373 kts 238°
2026-04-25 17:10 -40.70911 -69.89228 17959 ft 372 kts 238°
2026-04-25 17:10 -40.72292 -69.92104 17688 ft 371 kts 238°
2026-04-25 17:11 -40.73668 -69.94968 17416 ft 369 kts 238°
2026-04-25 17:11 -40.75040 -69.97823 17261 ft 368 kts 238°
2026-04-25 17:11 -40.76412 -70.00679 17212 ft 368 kts 238°
2026-04-25 17:11 -40.77763 -70.03500 17058 ft 368 kts 238°
2026-04-25 17:12 -40.79130 -70.06356 16796 ft 367 kts 238°
2026-04-25 17:12 -40.80487 -70.09190 16538 ft 365 kts 238°
2026-04-25 17:12 -40.81843 -70.12025 16280 ft 364 kts 238°
2026-04-25 17:12 -40.83193 -70.14848 16026 ft 363 kts 238°
2026-04-25 17:13 -40.84533 -70.17656 15767 ft 362 kts 238°
2026-04-25 17:13 -40.85440 -70.19555 15600 ft 361 kts 238°
2026-04-25 17:13 -40.87199 -70.23250 15311 ft 356 kts 238°
2026-04-25 17:13 -40.88511 -70.26017 15212 ft 355 kts 238°
2026-04-25 17:14 -40.89816 -70.28765 15112 ft 347 kts 238°
2026-04-25 17:14 -40.91078 -70.31416 14992 ft 335 kts 238°
2026-04-25 17:14 -40.92317 -70.34019 14848 ft 333 kts 238°
2026-04-25 17:14 -40.93545 -70.36604 14696 ft 332 kts 238°
2026-04-25 17:15 -40.94765 -70.39188 14455 ft 330 kts 238°
2026-04-25 17:15 -40.95967 -70.41734 14214 ft 329 kts 238°
2026-04-25 17:15 -40.97177 -70.44284 13914 ft 324 kts 237°
2026-04-25 17:15 -40.98544 -70.46619 13404 ft 319 kts 232°
2026-04-25 17:16 -40.99948 -70.48881 12899 ft 313 kts 232°
2026-04-25 17:16 -41.01277 -70.51025 12512 ft 289 kts 232°
2026-04-25 17:16 -41.02509 -70.53016 12081 ft 269 kts 232°
2026-04-25 17:16 -41.03655 -70.54874 11623 ft 253 kts 233°
2026-04-25 17:17 -41.04736 -70.56623 11147 ft 238 kts 233°
2026-04-25 17:17 -41.05761 -70.58290 10771 ft 228 kts 233°
2026-04-25 17:17 -41.06759 -70.59913 10711 ft 228 kts 233°
2026-04-25 17:17 -41.07737 -70.61504 10598 ft 219 kts 233°
2026-04-25 17:18 -41.08691 -70.63055 10377 ft 215 kts 233°
2026-04-25 17:18 -41.09632 -70.64585 10133 ft 214 kts 234°
2026-04-25 17:18 -41.10566 -70.66106 9882 ft 211 kts 234°
2026-04-25 17:18 -41.11488 -70.67605 9752 ft 210 kts 234°
2026-04-25 17:19 -41.12396 -70.69083 9613 ft 203 kts 234°
2026-04-25 17:19 -41.13285 -70.70533 9472 ft 202 kts 234°
2026-04-25 17:19 -41.14173 -70.71979 9346 ft 202 kts 234°
2026-04-25 17:19 -41.15064 -70.73434 9212 ft 202 kts 234°
2026-04-25 17:20 -41.15939 -70.74864 9046 ft 204 kts 234°
2026-04-25 17:20 -41.16853 -70.76363 8486 ft 213 kts 234°
2026-04-25 17:20 -41.17781 -70.77876 8270 ft 208 kts 235°
2026-04-25 17:20 -41.18712 -70.79399 7752 ft 217 kts 235°
2026-04-25 17:21 -41.19662 -70.80953 7446 ft 214 kts 236°
2026-04-25 17:21 -41.20576 -70.82440 7320 ft 203 kts 236°
2026-04-25 17:21 -41.21454 -70.83866 7205 ft 194 kts 236°
2026-04-25 17:21 -41.22282 -70.85215 7120 ft 180 kts 235°
2026-04-25 17:22 -41.23026 -70.86429 7067 ft 162 kts 236°
2026-04-25 17:22 -41.23485 -70.87181 6967 ft 154 kts 238°
2026-04-25 17:22 -41.24005 -70.88859 6912 ft 141 kts 263°
2026-04-25 17:22 -41.23953 -70.90154 6735 ft 143 kts 280°
2026-04-25 17:23 -41.23583 -70.91362 6504 ft 140 kts 289°
2026-04-25 17:23 -41.23176 -70.92520 6387 ft 137 kts 289°
2026-04-25 17:23 -41.22772 -70.93682 6272 ft 138 kts 289°
2026-04-25 17:23 -41.22369 -70.94846 6104 ft 140 kts 290°
2026-04-25 17:24 -41.21959 -70.96032 5900 ft 142 kts 291°
2026-04-25 17:24 -41.21541 -70.97240 5755 ft 145 kts 291°
2026-04-25 17:24 -41.21128 -70.98434 5550 ft 143 kts 291°
2026-04-25 17:24 -41.20714 -70.99632 5354 ft 143 kts 291°
2026-04-25 17:25 -41.20294 -71.00843 5153 ft 142 kts 292°
2026-04-25 17:25 -41.19883 -71.02031 4973 ft 143 kts 292°
2026-04-25 17:25 -41.19467 -71.03231 4756 ft 140 kts 292°
2026-04-25 17:25 -41.19068 -71.04384 4529 ft 136 kts 292°
2026-04-25 17:26 -41.18678 -71.05509 4305 ft 132 kts 292°
2026-04-25 17:26 -41.18293 -71.06619 4117 ft 131 kts 294°
2026-04-25 17:26 -41.17913 -71.07715 3919 ft 130 kts 294°
2026-04-25 17:26 -41.17538 -71.08796 3748 ft 129 kts 294°
2026-04-25 17:27 -41.17158 -71.09890 3578 ft 129 kts 294°
2026-04-25 17:27 -41.16785 -71.10966 3417 ft 128 kts 294°
2026-04-25 17:27 -41.16418 -71.12026 3236 ft 128 kts 292°
2026-04-25 17:27 -41.16296 -71.12389 3182 ft 127 kts 292°
2026-04-25 17:28 -41.15675 -71.14153 2841 ft 126 kts 292°
2026-04-25 17:28 -41.15325 -71.15163 2754 ft 106 kts 295°
2026-04-25 17:28 -41.15074 -71.15877 2752 ft 66 kts 294°
2026-04-25 17:28 -41.14972 -71.16172 2754 ft 27 kts 295°
2026-04-25 17:29 -41.14914 -71.16315 2755 ft 8 kts 316°
2026-04-25 17:29 -41.14859 -71.16319 2752 ft 10 kts 18°
2026-04-25 17:29 -41.14775 -71.16266 2749 ft 15 kts 29°
2026-04-25 17:29 -41.14705 -71.16214 2749 ft 8 kts 27°
2026-04-25 17:30 -41.14674 -71.16194 2749 ft 4 kts 25°
2026-04-25 17:30 -41.14672 -71.16193 2749 ft 0 kts 25°